When you browse on this site, cookies collect data to enhance your experience and personalize the content and advertising you see.
Visit our Privacy Policy to learn more. By continuing to use the site, you agree to this use of cookies and data.
  • In Lithuania
  • List of Countries
  • For 7 days
  • Water Temperature
  • Satellite Maps
  • Weather Map
  • Weather Widgets
  • user-avatar
    Login

    Hourly Weather Liverpool

    Today, 21 April, Sunday

    Time Temperature Precipitation Wind Pressure Humidity
    00:00 +14°C° 0 mm 3 mps 769 mmHg 71%
    01:00 +14°C° 0 mm 3 mps 768 mmHg 74%
    02:00 +13°C° 0 mm 3 mps 767 mmHg 76%
    03:00 +12°C° 0 mm 3 mps 767 mmHg 79%
    04:00 +13°C° 0 mm 2 mps 767 mmHg 80%
    05:00 +13°C° 0 mm 2 mps 766 mmHg 80%
    06:00 +13°C° 0 mm 2 mps 766 mmHg 80%
    07:00 +15°C° 0 mm 2 mps 765 mmHg 76%
    08:00 +16°C° 0 mm 2 mps 765 mmHg 71%
    09:00 +18°C° 0 mm 2 mps 764 mmHg 67%
    10:00 +19°C° 0 mm 2 mps 764 mmHg 61%
    11:00 +21°C° 0 mm 2 mps 763 mmHg 56%
    12:00 +23°C° 0 mm 2 mps 763 mmHg 49%
    13:00 +23°C° 0 mm 2 mps 762 mmHg 49%
    14:00 +24°C° 0 mm 2 mps 761 mmHg 48%
    15:00 +24°C° 0 mm 2 mps 761 mmHg 48%
    16:00 +23°C° 0 mm 2 mps 760 mmHg 52%
    17:00 +21°C° 0 mm 2 mps 760 mmHg 57%
    18:00 +20°C° 0 mm 2 mps 759 mmHg 61%
    19:00 +20°C° 0 mm 1 mps 759 mmHg 65%
    20:00 +18°C° 0 mm 1 mps 759 mmHg 68%
    21:00 +16°C° 0 mm 1 mps 759 mmHg 71%
    22:00 +15°C° 0 mm 2 mps 758 mmHg 73%
    23:00 +15°C° 0 mm 2 mps 758 mmHg 74%

    Tomorrow, 22 April, Monday

    Time Temperature Precipitation Wind Pressure Humidity
    00:00 +13°C° 0 mm 3 mps 758 mmHg 76%
    01:00 +13°C° 0 mm 3 mps 757 mmHg 76%
    02:00 +12°C° 0 mm 3 mps 757 mmHg 76%
    03:00 +11°C° 0 mm 3 mps 756 mmHg 77%
    04:00 +11°C° 0 mm 4 mps 756 mmHg 77%
    05:00 +11°C° 0 mm 4 mps 756 mmHg 77%
    06:00 +11°C° 0 mm 4 mps 755 mmHg 78%
    07:00 +12°C° 0 mm 4 mps 755 mmHg 72%
    08:00 +14°C° 0 mm 4 mps 754 mmHg 65%
    09:00 +16°C° 0 mm 5 mps 754 mmHg 59%
    10:00 +17°C° 0 mm 5 mps 753 mmHg 56%
    11:00 +20°C° 0 mm 5 mps 753 mmHg 52%
    12:00 +21°C° 0 mm 5 mps 753 mmHg 49%
    13:00 +21°C° 0 mm 5 mps 752 mmHg 50%
    14:00 +22°C° 0 mm 5 mps 751 mmHg 51%
    15:00 +22°C° 0 mm 6 mps 751 mmHg 51%
    16:00 +21°C° 0 mm 5 mps 751 mmHg 54%
    17:00 +20°C° 0 mm 5 mps 750 mmHg 56%
    18:00 +20°C° 0 mm 5 mps 750 mmHg 59%
    19:00 +19°C° 0 mm 5 mps 750 mmHg 63%
    20:00 +17°C° 0 mm 5 mps 750 mmHg 66%
    21:00 +16°C° 0 mm 5 mps 750 mmHg 70%
    22:00 +15°C° 0 mm 4 mps 750 mmHg 72%
    23:00 +14°C° 0 mm 4 mps 750 mmHg 75%

    Day after tomorrow, 23 April, Tuesday

    Time Temperature Precipitation Wind Pressure Humidity
    00:00 +14°C° 0 mm 4 mps 751 mmHg 78%
    01:00 +13°C° 0 mm 3 mps 750 mmHg 79%
    02:00 +13°C° 0 mm 3 mps 750 mmHg 79%
    03:00 +12°C° 0 mm 3 mps 750 mmHg 80%
    04:00 +12°C° 0 mm 3 mps 750 mmHg 78%
    05:00 +13°C° 0 mm 2 mps 750 mmHg 77%
    06:00 +13°C° 0 mm 2 mps 750 mmHg 75%
    07:00 +14°C° 0 mm 3 mps 749 mmHg 72%
    08:00 +16°C° 0 mm 3 mps 749 mmHg 68%
    09:00 +17°C° 0 mm 4 mps 749 mmHg 65%
    10:00 +19°C° 0 mm 4 mps 749 mmHg 61%
    11:00 +20°C° 0 mm 5 mps 749 mmHg 57%
    12:00 +21°C° 0 mm 5 mps 748 mmHg 54%
    13:00 +21°C° 0 mm 5 mps 748 mmHg 54%
    14:00 +21°C° 0 mm 5 mps 748 mmHg 54%
    15:00 +22°C° 0 mm 5 mps 748 mmHg 54%
    16:00 +21°C° 0 mm 5 mps 748 mmHg 57%
    17:00 +20°C° 0 mm 5 mps 748 mmHg 61%
    18:00 +19°C° 0 mm 5 mps 747 mmHg 65%
    19:00 +16°C° 0 mm 5 mps 748 mmHg 66%
    20:00 +15°C° 0 mm 5 mps 748 mmHg 67%
    21:00 +13°C° 0 mm 5 mps 748 mmHg 69%
    22:00 +13°C° 0 mm 5 mps 748 mmHg 72%
    23:00 +12°C° 0 mm 4 mps 748 mmHg 75%

    24 April, Wednesday

    Time Temperature Precipitation Wind Pressure Humidity
    00:00 +11°C° 0 mm 4 mps 748 mmHg 78%
    01:00 +10°C° 0 mm 3 mps 747 mmHg 81%
    02:00 +10°C° 0 mm 3 mps 747 mmHg 84%
    03:00 +9°C° 0 mm 3 mps 746 mmHg 87%
    04:00 +10°C° 0 mm 3 mps 746 mmHg 87%
    05:00 +10°C° 0 mm 3 mps 746 mmHg 88%
    06:00 +10°C° 0 mm 3 mps 745 mmHg 89%
    07:00 +11°C° 0 mm 4 mps 745 mmHg 84%
    08:00 +13°C° 0 mm 4 mps 745 mmHg 80%
    09:00 +14°C° 0 mm 5 mps 745 mmHg 76%
    10:00 +15°C° 0.1 mm 5 mps 745 mmHg 76%
    11:00 +16°C° 0.1 mm 5 mps 744 mmHg 75%
    12:00 +17°C° 0.1 mm 5 mps 744 mmHg 75%
    13:00 +17°C° 1 mm 4 mps 744 mmHg 77%
    14:00 +15°C° 1 mm 4 mps 744 mmHg 80%
    15:00 +14°C° 1 mm 4 mps 744 mmHg 82%
    16:00 +12°C° 1.1 mm 4 mps 744 mmHg 83%
    17:00 +11°C° 1.1 mm 4 mps 744 mmHg 83%
    18:00 +10°C° 1.1 mm 4 mps 744 mmHg 84%
    19:00 +8°C° 0.4 mm 4 mps 745 mmHg 85%
    20:00 +8°C° 0.4 mm 4 mps 745 mmHg 86%
    21:00 +8°C° 0.4 mm 4 mps 746 mmHg 87%
    22:00 +8°C° 0 mm 5 mps 746 mmHg 88%
    23:00 +7°C° 0 mm 5 mps 746 mmHg 89%

    25 April, Thursday

    Time Temperature Precipitation Wind Pressure Humidity
    00:00 +7°C° 0 mm 5 mps 746 mmHg 89%
    01:00 +7°C° 0 mm 6 mps 745 mmHg 88%
    02:00 +8°C° 0 mm 6 mps 745 mmHg 87%
    03:00 +8°C° 0 mm 7 mps 745 mmHg 86%
    04:00 +8°C° 0 mm 7 mps 744 mmHg 86%
    05:00 +7°C° 0 mm 8 mps 744 mmHg 85%
    06:00 +9°C° 0 mm 8 mps 744 mmHg 84%
    07:00 +9°C° 0.1 mm 8 mps 744 mmHg 82%
    08:00 +10°C° 0.1 mm 7 mps 744 mmHg 79%
    09:00 +10°C° 0.1 mm 7 mps 744 mmHg 77%
    10:00 +11°C° 0 mm 7 mps 744 mmHg 69%
    11:00 +12°C° 0 mm 7 mps 745 mmHg 61%
    12:00 +13°C° 0 mm 8 mps 745 mmHg 53%
    13:00 +14°C° 0.3 mm 7 mps 745 mmHg 55%
    14:00 +14°C° 0.3 mm 7 mps 746 mmHg 56%
    15:00 +14°C° 0.3 mm 6 mps 746 mmHg 57%
    16:00 +13°C° 0.3 mm 6 mps 746 mmHg 61%
    17:00 +11°C° 0.3 mm 6 mps 746 mmHg 64%
    18:00 +12°C° 0.3 mm 5 mps 747 mmHg 67%
    19:00 +10°C° 0.1 mm 6 mps 747 mmHg 70%
    20:00 +9°C° 0.1 mm 6 mps 748 mmHg 72%
    21:00 +8°C° 0.1 mm 6 mps 748 mmHg 75%
    22:00 +8°C° 0 mm 7 mps 748 mmHg 76%
    23:00 +6°C° 0 mm 7 mps 748 mmHg 77%

    26 April, Friday

    Time Temperature Precipitation Wind Pressure Humidity
    00:00 +6°C° 0 mm 7 mps 749 mmHg 78%
    01:00 +6°C° 0.7 mm 8 mps 749 mmHg 80%
    02:00 +6°C° 0.7 mm 8 mps 749 mmHg 82%
    03:00 +6°C° 0.7 mm 9 mps 749 mmHg 84%
    04:00 +6°C° 0.3 mm 8 mps 750 mmHg 84%
    05:00 +7°C° 0.3 mm 8 mps 750 mmHg 85%
    06:00 +8°C° 0.3 mm 7 mps 751 mmHg 85%
    07:00 +9°C° 0.3 mm 6 mps 751 mmHg 83%
    08:00 +10°C° 0.3 mm 5 mps 752 mmHg 82%
    09:00 +12°C° 0.3 mm 5 mps 753 mmHg 80%
    10:00 +10°C° 0.2 mm 5 mps 754 mmHg 78%
    11:00 +10°C° 0.2 mm 5 mps 755 mmHg 77%
    12:00 +10°C° 0.2 mm 6 mps 756 mmHg 76%
    13:00 +10°C° 0 mm 5 mps 757 mmHg 69%
    14:00 +12°C° 0 mm 5 mps 757 mmHg 63%
    15:00 +12°C° 0 mm 5 mps 758 mmHg 56%
    16:00 +12°C° 0 mm 5 mps 758 mmHg 58%
    17:00 +10°C° 0 mm 5 mps 758 mmHg 59%
    18:00 +10°C° 0 mm 5 mps 758 mmHg 61%
    19:00 +9°C° 0 mm 5 mps 758 mmHg 63%
    20:00 +9°C° 0 mm 6 mps 757 mmHg 65%
    21:00 +8°C° 0 mm 7 mps 757 mmHg 67%
    22:00 +7°C° 0.7 mm 8 mps 757 mmHg 74%
    23:00 +7°C° 0.7 mm 8 mps 757 mmHg 80%
    Show more